Regional Weather Roundup
Issued by NWS Kansas City/Pleasant Hill, MO

Home | Current Version | Previous Version | Graphics & Text | Print | Product List | Glossary Off
Versions: 1 2 3 4 5 6 7 8 9 10 11 12 13 14 15 16 17 18 19 20 21 22 23 24 25 26 27 28 29 30 31 32 33 34 35 36 37 38 39 40 41 42 43 44 45 46 47 48 49 50

000
ASUS43 KEAX 181104
RWREAX

WEATHER ROUNDUP FOR EASTERN KANSAS AND NORTHWEST MISSOURI
NATIONAL WEATHER SERVICE KANSAS CITY/PLEASANT HILL MO
600 AM CDT FRI APR 18 2014

KSZ040-057-103>105-MOZ028-029-037-043-181200-
...KANSAS CITY METROPOLITAN AREA...

CITY           SKY/WX    TMP DP  RH WIND       PRES   REMARKS
K.C. INTL      PTCLDY    34  31  88 S6        30.29R FOG     WCI  29
K.C. DOWNTOWN  CLEAR     39  34  82 CALM      30.29R
LEES SUMMIT    CLEAR     38  33  82 CALM      30.29S
OLATHE - IXD   CLEAR     30  28  92 CALM      30.29R FOG
OLATHE - OJC   FAIR      33  31  92 CALM      30.28S FOG
LAWRENCE       CLEAR     29  27  92 CALM      30.29R FOG

$$

MOZ001>008-011>017-020>025-030>033-038>040-044>046-053-054-181200-
...NORTHERN AND CENTRAL MISSOURI...

CITY           SKY/WX    TMP DP  RH WIND       PRES   REMARKS
ST. JOSEPH     CLEAR     31  28  89 CALM      30.30R FOG
MOSBY          FAIR      32  32 100 CALM      30.30R FOG
WHITEMAN AFB   PTCLDY    36  33  90 N2        30.29S
CLINTON        CLEAR     36  36 100 NE3       30.29S FOG
SEDALIA        CLEAR     39  37  92 NE3       30.29F FOG
WARSAW         NOT AVBL
MARSHALL         N/A     37  37 100 CALM      30.31S FOG
CHILLICOTHE      N/A     30  27  88 CALM      30.32R
MOBERLY        CLEAR     36  32  87 CALM      30.31R FOG
KIRKSVILLE     CLEAR     33  31  92 NE6       30.31S WCI  28

$$

MOZ041-047>049-056>058-063>065-088>090-097-181200-
...EASTERN AND SOUTHERN MISSOURI...

CITY           SKY/WX    TMP DP  RH WIND       PRES   REMARKS
ST. LOUIS INTL PTCLDY    47  38  71 N3        30.30R
SPIRIT OF STL  CLEAR     40  37  89 CALM      30.29R
COLUMBIA       CLEAR     39  37  92 N6        30.29R WCI  35
JEFFERSON CITY CLEAR     42  38  85 CALM      30.30R
MEXICO         CLEAR    N/A N/A N/A CALM      30.30R HAZE
HANNIBAL       CLEAR     41  34  75 N3        30.31R
ROLLA          CLOUDY    43  39  86 N3        30.26R
LEBANON        PTCLDY    45  39  81 E3        30.26S
OSAGE BEACH    PTCLDY    39  36  87 CALM      30.29S
SPRINGFIELD    MOCLDY    43  38  82 CALM      30.24F
BRANSON        PTCLDY    46  39  76 CALM      30.25R
NEVADA         CLEAR     36  36 100 NE3       30.29S FOG
JOPLIN         PTCLDY    40  38  93 NE3       30.26S FOG
WEST PLAINS    PTCLDY    47  39  74 NE3       30.25F

$$

IAZ060-094-KSZ022-034>040-054-083-096-NEZ052-066-093-181200-
...KANSAS...SOUTHEAST NEBRASKA AND IOWA...

CITY           SKY/WX    TMP DP  RH WIND       PRES   REMARKS
TOPEKA         CLOUDY    33  31  92 CALM      30.29R FOG
MANHATTAN      MOCLDY    31  29  92 CALM      30.26S FOG
EMPORIA        CLEAR     30  29  96 SE5       30.26S FOG     WCI  25
CHANUTE        CLEAR     35  34  96 CALM      30.27S FOG
WICHITA        CLEAR     33  31  92 CALM      30.25S FOG
OMAHA          PTCLDY    32  28  85 CALM      30.27S
LINCOLN        CLEAR     37  29  72 CALM      30.26R
FALLS CITY     CLEAR     29  27  92 SE3       30.27S FOG
LAMONI         CLEAR     35  30  82 E6        30.28S WCI  30
DES MOINES     PTCLDY    35  29  78 E5        30.32R WCI  31

$$




USA.gov is the U.S. government's official web portal to all federal, state and local government web resources and services.